This demonstration page uses our WeatherBlox Daily Observations layout. Learn more.

Hourly Observations for March 31, 2015

Temp ( °F °C ) Dew Point ( °F °C ) Humidity (%) Winds ( mph kmh ) Pressure ( in mb ) Visibility ( mi km ) Precip ( " mm )
12:15 am 00:15 Clear 46 8 20 -6.5 35 35 NE 5 7 30.03 1017 10 16.0934 0 0
12:35 am 00:35 Clear 43 6.3 20 -6.6 39 39 N 3 6 30.03 1017 10 16.0934 0 0
12:55 am 00:55 Clear 44 6.8 22 -5.8 41 41 Calm 30.03 1017 10 16.0934 0 0
1:15 am 01:15 Clear 40 4.7 21 -6.3 45 45 N 3 6 30.06 1018 10 16.0934 0 0
1:35 am 01:35 Clear 40 4.6 21 -6 47 47 Calm 30.06 1018 10 16.0934 0 0
1:55 am 01:55 Clear 40 4.3 21 -6.1 47 47 WNW 3 6 30.06 1018 10 16.0934 0 0
2:15 am 02:15 Clear 40 4.2 22 -5.8 49 49 WNW 3 6 30.06 1018 10 16.0934 0 0
2:35 am 02:35 Clear 39 3.7 22 -5.7 51 51 WNW 3 6 30.06 1018 10 16.0934 0 0
2:55 am 02:55 Clear 38 3.3 21 -6 51 51 WNW 3 6 30.06 1018 10 16.0934 0 0
3:15 am 03:15 Clear 40 4.4 23 -5.1 50 50 NNW 5 7 30.06 1018 10 16.0934 0 0
3:35 am 03:35 Clear 39 3.9 23 -5.1 52 52 NNW 5 7 30.06 1018 10 16.0934 0 0
3:55 am 03:55 Clear 43 6.1 25 -4 49 49 NNW 7 11 30.03 1017 10 16.0934 0 0
4:15 am 04:15 Clear 40 4.3 24 -4.5 53 53 NNW 3 6 30.06 1018 10 16.0934 0 0
4:35 am 04:35 Clear 39 4 24 -4.5 54 54 NNW 3 6 30.06 1018 10 16.0934 0 0
4:55 am 04:55 Clear 39 4 24 -4.4 55 55 NNW 5 7 30.06 1018 10 16.0934 0 0
5:15 am 05:15 Clear 37 2.7 24 -4.6 59 59 NNW 3 6 30.06 1018 10 16.0934 0 0
5:35 am 05:35 Clear 37 2.8 24 -4.4 59 59 NW 3 6 30.06 1018 10 16.0934 0 0
5:55 am 05:55 Clear 37 2.5 24 -4.5 60 60 NW 6 9 30.06 1018 10 16.0934 0 0
6:15 am 06:15 Clear 36 2.3 24 -4.4 62 62 NW 6 9 30.12 1020 10 16.0934 0 0
6:35 am 06:35 Clear 35 1.8 24 -4.7 62 62 WNW 3 6 30.12 1020 10 16.0934 0 0
6:55 am 06:55 Clear 36 2.1 24 -4.4 62 62 NW 5 7 30.12 1020 10 16.0934 0 0
7:15 am 07:15 Clear 36 2.3 24 -4.5 61 61 NNW 6 9 30.12 1020 10 16.0934 0 0
7:35 am 07:35 Sunny 35 1.9 24 -4.7 62 62 N 3 6 30.12 1020 10 16.0934 0 0
7:55 am 07:55 Sunny 35 1.4 24 -4.5 65 65 Calm 30.12 1020 10 16.0934 0 0
8:15 am 08:15 Sunny 38 3.3 26 -3.6 61 61 Calm 30.09 1019 7 11.26538 0 0
8:35 am 08:35 Sunny 41 5 27 -2.7 58 58 Calm 30.09 1019 7 11.26538 0 0
8:55 am 08:55 Hazy 47 8.1 29 -1.5 51 51 Calm 30.06 1018 5 8.0467 0 0
9:15 am 09:15 Sunny 51 10.8 30 -1.1 44 44 Calm 30.03 1017 10 16.0934 0 0
9:35 am 09:35 Sunny 56 13.1 30 -0.9 38 38 ESE 8 13 30 1016 10 16.0934 0 0
9:55 am 09:55 Sunny 58 14.4 30 -0.9 35 35 ESE 10 17 30 1016 10 16.0934 0 0
10:15 am 10:15 Sunny 60 15.5 31 -0.7 33 33 SE 9 15 30 1016 10 16.0934 0 0
10:35 am 10:35 Sunny 62 16.4 31 -0.4 32 32 SE 8 13 30 1016 10 16.0934 0 0
10:55 am 10:55 Sunny 64 17.8 31 -0.5 29 29 SSE 8 13 29.97 1015 10 16.0934 0 0
11:15 am 11:15 Sunny 66 18.9 31 -0.4 27 27 SSE 10 17 29.97 1015 10 16.0934 0 0
11:35 am 11:35 Sunny 67 19.5 30 -0.9 25 25 SSE 9 15 29.94 1014 10 16.0934 0 0
11:55 am 11:55 Sunny 69 20.7 30 -1.3 23 23 S 10 17 29.94 1014 10 16.0934 0 0
12:15 pm 12:15 Sunny 69 20.7 28 -2 22 22 S 7 11 29.94 1014 10 16.0934 0 0
12:35 pm 12:35 Sunny 71 21.5 28 -2.1 21 21 SSW 7 11 29.91 1013 10 16.0934 0 0
12:55 pm 12:55 Sunny 71 21.5 27 -2.6 20 20 S 7 11 29.91 1013 10 16.0934 0 0
1:15 pm 13:15 Sunny 72 22.4 27 -2.6 19 19 SSE 9 15 29.91 1013 10 16.0934 0 0
1:35 pm 13:35 Sunny 73 22.8 25 -3.8 17 17 S 10 17 29.91 1013 10 16.0934 0 0
1:55 pm 13:55 Sunny 74 23.2 25 -3.8 16 16 SSW 10 17 29.85 1011 10 16.0934 0 0
2:15 pm 14:15 Sunny 75 23.8 26 -3.2 16 16 S 7 11 29.85 1011 10 16.0934 0 0
2:35 pm 14:35 Sunny 75 24 26 -3.5 16 16 S 7 11 29.83 1010 10 16.0934 0 0
2:55 pm 14:55 Sunny 75 24 26 -3.6 16 16 SSW 12 19 29.83 1010 10 16.0934 0 0
3:15 pm 15:15 Sunny 76 24.4 26 -3.6 15 15 S 8 13 29.83 1010 10 16.0934 0 0
3:35 pm 15:35 Sunny 76 24.5 26 -3.6 15 15 S 10 17 29.8 1009 10 16.0934 0 0
3:55 pm 15:55 Sunny 76 24.6 25 -4.1 15 15 S 15 24 29.8 1009 10 16.0934 0 0
4:15 pm 16:15 Sunny 76 24.6 24 -4.4 14 14 S 9 15 29.8 1009 10 16.0934 0 0
4:35 pm 16:35 Sunny 77 24.9 24 -4.2 14 14 S 14 22 29.77 1008 10 16.0934 0 0
4:55 pm 16:55 Sunny 77 25 25 -4 14 14 S 13 20 29.77 1008 10 16.0934 0 0
5:15 pm 17:15 Sunny 78 25.3 25 -3.9 14 14 S 16 26 29.77 1008 10 16.0934 0 0
5:35 pm 17:35 Sunny 77 25.1 24 -4.4 14 14 SSW 14 22 29.74 1007 10 16.0934 0 0
5:55 pm 17:55 Sunny 77 25.1 25 -4.1 14 14 S 13 20 29.74 1007 10 16.0934 0 0
6:15 pm 18:15 Sunny 77 25.1 25 -4.1 14 14 S 16 26 29.74 1007 10 16.0934 0 0
6:35 pm 18:35 Sunny 77 24.9 25 -4.1 14 14 S 12 19 29.74 1007 10 16.0934 0 0
7:15 pm 19:15 Sunny 75 23.9 24 -4.3 15 15 SSE 14 22 29.71 1006 10 16.0934 0 0
7:35 pm 19:35 Sunny 73 22.9 24 -4.5 16 16 SSE 10 17 29.71 1006 10 16.0934 0 0
7:55 pm 19:55 Sunny 68 19.8 25 -4 20 20 SSE 9 15 29.74 1007 10 16.0934 0 0
8:15 pm 20:15 Clear 64 18 25 -4.1 22 22 SSE 10 17 29.74 1007 10 16.0934 0 0
8:35 pm 20:35 Clear 61 16.1 26 -3.4 26 26 SSE 10 17 29.77 1008 10 16.0934 0 0
8:55 pm 20:55 Clear 60 15.4 26 -3.1 28 28 SSE 10 17 29.77 1008 10 16.0934 0 0
9:15 pm 21:15 Clear 61 15.9 26 -3.2 27 27 SSE 12 19 29.77 1008 10 16.0934 0 0
9:35 pm 21:35 Clear 59 14.8 26 -3.2 29 29 SSE 12 19 29.77 1008 10 16.0934 0 0
9:55 pm 21:55 Clear 58 14.5 27 -3 30 30 SSE 10 17 29.77 1008 10 16.0934 0 0
10:15 pm 22:15 Clear 58 14.6 28 -2.5 31 31 SSE 12 19 29.77 1008 10 16.0934 0 0
10:35 pm 22:35 Clear 59 14.8 28 -2.2 31 31 SSE 12 19 29.77 1008 10 16.0934 0 0
10:55 pm 22:55 Clear 59 14.8 28 -2 32 32 SSE 10 17 29.77 1008 10 16.0934 0 0
11:15 pm 23:15 Clear 59 15 28 -2 31 31 SSE 13 20 29.77 1008 10 16.0934 0 0
11:35 pm 23:35 Clear 59 15.1 29 -1.8 31 31 SSE 13 20 29.77 1008 10 16.0934 0 0
11:55 pm 23:55 Clear 58 14.6 29 -1.7 33 33 S 15 24 29.74 1007 10 16.0934 0 0

Powered by AerisWeather